Flag for Sweden Weather past 2 weeks in Örebro, Sweden

Now
50 °F

Rain. Mostly cloudy.


Feels Like: 49 °F
Forecast: 44 / 55 °F
Wind: 3 mph from East

Location: Orebro Private

Current Time: May 6, 2015 at 5:26:48 AM

Latest Report: May 6, 2015 at 4:50 AM


Visibility: 1 mi

Pressure: 29.53 "Hg

Humidity: 100%

Dew point: 50 °F

Location of ÖrebroLocation

Historic Weather in Örebro — Graph

°F

Örebro temperature yesterday

Maximum temperature yesterday: 57 °F (at 2:50 PM)
Minimum temperature yesterday: 46 °F (at 12:20 AM)
Average temperature yesterday: 51 °F

Past Weeks' High & Low Weather Summary

 TemperatureHumidityPressure
High64 °F (Apr 22, 2:50 PM)100% (Apr 26, 12:20 AM)30.27 "Hg (Apr 26, 12:20 AM)
Low30 °F (Apr 27, 5:20 AM)23% (Apr 23, 4:50 PM)29.47 "Hg (Apr 26, 1:50 AM)
Average47 °F70%29.77 "Hg
* Reported Apr 21 4:20 AM — May 6 4:20 AM, Örebro, Weather by CustomWeather, © 2015

Note: Actual official high and low records may vary slightly from our data, if they occured in-between our weather recording intervals... More about our weather records

Advertising

Örebro weather history for previous 24 hours

 ConditionsComfort  
Time TempWeatherWind HumidityBarometerVisibility
4:20 AM
Wed, May 6
52 °FRain. Dense fog.3 mph94%29.53 "Hg1 mi
3:50 AM50 °FFog.5 mph100%29.53 "Hg1 mi
3:20 AM50 °FFog.5 mph100%29.53 "Hg1 mi
2:50 AM50 °FDrizzle. Low clouds.6 mph100%29.53 "Hg2 mi
2:20 AM52 °FLow clouds.8 mph94%29.56 "HgN/A
1:50 AM52 °FLow clouds.7 mph94%29.56 "HgN/A
1:20 AM52 °FLow clouds.9 mph94%29.56 "HgN/A
12:50 AM52 °FDrizzle. Low clouds.9 mph94%29.56 "HgN/A
12:20 AM52 °FLight rain. Mostly cloudy.8 mph94%29.59 "Hg6 mi
11:50 PM
Tue, May 5
50 °FRain. Mostly cloudy.6 mph100%29.59 "Hg5 mi
11:20 PM50 °FLight rain. Passing clouds.10 mph100%29.59 "Hg4 mi
10:50 PM50 °FLight rain. Low clouds.12 mph100%29.62 "HgN/A
10:20 PM50 °FLight rain. Low clouds.17 mph94%29.62 "Hg4 mi
9:50 PM50 °FRain. Partly sunny.14 mph94%29.62 "Hg4 mi
9:20 PM50 °FLight rain. Low clouds.12 mph94%29.65 "Hg5 mi
8:50 PM50 °FLight rain. Partly sunny.15 mph94%29.65 "Hg5 mi
8:20 PM50 °FDrizzle. More clouds than sun.13 mph94%29.65 "HgN/A
7:50 PM52 °FPartly sunny.16 mph88%29.68 "HgN/A
7:20 PM52 °FPartly sunny.17 mph88%29.68 "HgN/A
6:50 PM54 °FLight rain. Partly sunny.16 mph88%29.68 "HgN/A
6:20 PM54 °FDrizzle. Partly sunny.12 mph94%29.71 "HgN/A
5:50 PM55 °FLight rain. Broken clouds.14 mph88%29.71 "HgN/A
5:20 PM57 °FBroken clouds.15 mph82%29.71 "HgN/A
4:50 PM55 °FPartly sunny.14 mph88%29.71 "HgN/A
4:20 PM57 °FPartly sunny.13 mph82%29.74 "HgN/A
3:50 PM57 °FBroken clouds.12 mph82%29.74 "HgN/A
3:20 PM55 °FPartly sunny.12 mph82%29.77 "HgN/A
2:50 PM57 °FBroken clouds.14 mph82%29.77 "HgN/A
2:20 PM55 °FPartly sunny.9 mph88%29.77 "HgN/A
1:50 PM55 °FPartly sunny.9 mph88%29.80 "HgN/A
1:20 PM55 °FPartly sunny.10 mph88%29.80 "HgN/A
12:50 PM54 °FPartly sunny.9 mph88%29.80 "HgN/A
12:20 PM55 °FPartly sunny.7 mph82%29.83 "HgN/A
11:50 AM55 °FPartly sunny.7 mph82%29.83 "HgN/A
11:20 AM54 °FPartly sunny.8 mph88%29.83 "HgN/A
10:50 AM54 °FPartly sunny.8 mph88%29.83 "HgN/A
10:20 AM54 °FPartly sunny.9 mph82%29.83 "HgN/A
9:50 AM54 °FPartly sunny.7 mph82%29.83 "HgN/A
9:20 AM52 °FPartly sunny.6 mph88%29.83 "HgN/A
8:50 AM50 °FPartly sunny.5 mph94%29.83 "HgN/A
8:20 AM50 °FBroken clouds.3 mph94%29.83 "HgN/A
7:50 AM48 °FBroken clouds.2 mph100%29.83 "HgN/A
7:20 AM46 °FPartly sunny.5 mph100%29.83 "HgN/A
6:50 AM46 °FLow clouds.5 mph100%29.83 "HgN/A
6:20 AM46 °FPartly sunny.5 mph100%29.83 "HgN/A
5:20 AM48 °FFog.2 mph94%29.80 "Hg2 mi
Weather by CustomWeather, © 2015

See weather overviewHow to use our weather pages